Flag for U.S.A. Weather past 2 weeks in Juneau, Alaska, U.S.A.

Now
53 °F

Light rain. Fog.


Feels Like: 48 °F
Forecast: 51 / 54 °F
Wind: 21 mph from East

Location: Juneau International Airport

Current Time: Sep 18, 2014 at 9:46:43 PM

Latest Report: Sep 18, 2014 at 8:53 PM


Visibility: 5 mi

Pressure: 29.23 "Hg

Humidity: 93%

Dew point: 51 °F

Location of JuneauLocation

Historic Weather in Juneau — Graph

°F

Juneau temperature yesterday

Maximum temperature yesterday: 59 °F (at 2:53 PM)
Minimum temperature yesterday: 47 °F (at 6:53 AM)
Average temperature yesterday: 52 °F

Past Weeks' High & Low Weather Summary

 TemperatureHumidityPressure
High63 °F (Sep 13, 2:53 PM)100% (Sep 6, 10:53 PM)30.36 "Hg (Sep 6, 10:53 PM)
Low36 °F (Sep 9, 6:53 AM)42% (Sep 8, 12:53 PM)29.18 "Hg (Sep 18, 6:53 PM)
Average52 °F88%30.03 "Hg
* Reported Sep 3 7:53 PM — Sep 18 7:53 PM, Juneau, Weather by CustomWeather, © 2014

Note: Actual official high and low records may vary slightly from our data, if they occured in-between our weather recording intervals... More about our weather records

Advertising

Juneau weather history for previous 24 hours

 ConditionsComfort  
Time TempWeatherWind HumidityBarometerVisibility
7:53 PM
Sep 18
52 °FLight rain. Mostly cloudy.14 mph97%29.20 "Hg10 mi
6:53 PM53 °FLight rain. Mostly cloudy.15 mph93%29.18 "Hg7 mi
5:53 PM53 °FMostly cloudy.13 mph89%29.19 "Hg10 mi
4:53 PM54 °FLight rain. More clouds than sun.14 mph86%29.19 "Hg10 mi
3:53 PM54 °FLight rain. Mostly cloudy.21 mph90%29.20 "Hg8 mi
2:53 PM55 °FLight rain. Mostly cloudy.16 mph83%29.22 "Hg10 mi
1:53 PM54 °FLight rain. Mostly cloudy.12 mph90%29.24 "Hg10 mi
12:53 PM55 °FLight rain. Mostly cloudy.12 mph87%29.26 "Hg10 mi
11:53 AM55 °FLight rain. Mostly cloudy.10 mph87%29.29 "Hg10 mi
10:53 AM55 °FLight rain. Mostly cloudy.13 mph87%29.31 "Hg10 mi
9:53 AM54 °FLight rain. Mostly cloudy.7 mph90%29.34 "Hg10 mi
8:53 AM52 °FLight rain. Mostly cloudy.8 mph93%29.36 "Hg10 mi
7:53 AM51 °FLight rain. Mostly cloudy.10 mph92%29.38 "Hg10 mi
6:53 AM50 °FMostly cloudy.16 mph93%29.40 "Hg10 mi
5:53 AM51 °FLight rain. Mostly cloudy.13 mph92%29.42 "Hg10 mi
4:53 AM52 °FLight rain. Mostly cloudy.10 mph89%29.44 "Hg10 mi
3:53 AM52 °FLight rain. Mostly cloudy.7 mph86%29.47 "Hg10 mi
2:53 AM52 °FLight rain. Mostly cloudy.9 mph86%29.49 "Hg10 mi
1:53 AM52 °FLight rain. Mostly cloudy.10 mph89%29.52 "Hg10 mi
12:53 AM52 °FMostly cloudy.12 mph89%29.54 "Hg10 mi
11:53 PM
Sep 17
52 °FMostly cloudy.10 mph86%29.55 "Hg10 mi
10:53 PM52 °FPartly cloudy.13 mph86%29.56 "Hg10 mi
9:53 PM52 °FMostly cloudy.9 mph86%29.58 "Hg10 mi
Weather by CustomWeather, © 2014

See weather overviewHow to use our weather pages